When you browse on this site, cookies collect data to enhance your experience and personalize the content and advertising you see.
Visit our Privacy Policy to learn more. By continuing to use the site, you agree to this use of cookies and data.
  • In Belgium
  • List of Countries
  • For 7 days
  • Water Temperature
  • Satellite Maps
  • Weather Map
  • Weather Widgets
  • user-avatar
    Login

    Hourly Weather Samsonowice

    Today, 22 February, Friday

    Time Temperature Precipitation Wind Pressure Humidity
    00:00 +5°C° 1.2 mm 6 mps 752 mmHg 91%
    01:00 +5°C° 0 mm 4 mps 752 mmHg 91%
    02:00 +6°C° 0.5 mm 5 mps 752 mmHg 92%
    03:00 +6°C° 0.5 mm 5 mps 753 mmHg 93%
    04:00 +5°C° 0.5 mm 6 mps 753 mmHg 93%
    05:00 +3°C° 0.1 mm 6 mps 754 mmHg 90%
    06:00 +2°C° 0.1 mm 6 mps 755 mmHg 86%
    07:00 +1°C° 0 mm 5 mps 757 mmHg 82%
    08:00 0°C° 0 mm 5 mps 758 mmHg 77%
    09:00 -2°C° 0 mm 6 mps 759 mmHg 72%
    10:00 -3°C° 0 mm 6 mps 760 mmHg 67%
    11:00 -2°C° 0 mm 6 mps 761 mmHg 61%
    12:00 -2°C° 0 mm 6 mps 762 mmHg 54%
    13:00 -1°C° 0 mm 6 mps 763 mmHg 47%
    14:00 -1°C° 0 mm 5 mps 763 mmHg 46%
    15:00 -1°C° 0 mm 5 mps 764 mmHg 45%
    16:00 -1°C° 0 mm 5 mps 764 mmHg 44%
    17:00 -2°C° 0 mm 4 mps 765 mmHg 48%
    18:00 -3°C° 0 mm 4 mps 766 mmHg 51%
    19:00 -4°C° 0 mm 3 mps 766 mmHg 55%
    20:00 -4°C° 0 mm 3 mps 767 mmHg 54%
    21:00 -4°C° 0 mm 3 mps 768 mmHg 54%
    22:00 -3°C° 0 mm 2 mps 768 mmHg 53%
    23:00 -3°C° 0 mm 2 mps 769 mmHg 51%

    Tomorrow, 23 February, Saturday

    Time Temperature Precipitation Wind Pressure Humidity
    00:00 -3°C° 0 mm 2 mps 769 mmHg 49%
    01:00 -3°C° 0 mm 2 mps 769 mmHg 47%
    02:00 -3°C° 0 mm 2 mps 769 mmHg 46%
    03:00 -2°C° 0 mm 1 mps 769 mmHg 45%
    04:00 -2°C° 0 mm 1 mps 769 mmHg 44%
    05:00 -2°C° 0 mm 1 mps 769 mmHg 44%
    06:00 -2°C° 0 mm 1 mps 769 mmHg 43%
    07:00 -2°C° 0 mm 1 mps 769 mmHg 43%
    08:00 -1°C° 0 mm 1 mps 769 mmHg 39%
    09:00 -1°C° 0 mm 1 mps 769 mmHg 35%
    10:00 -2°C° 0 mm 2 mps 770 mmHg 31%
    11:00 -1°C° 0 mm 2 mps 769 mmHg 28%
    12:00 +1°C° 0 mm 2 mps 769 mmHg 26%
    13:00 +1°C° 0 mm 2 mps 769 mmHg 24%
    14:00 +2°C° 0 mm 2 mps 768 mmHg 25%
    15:00 +2°C° 0 mm 2 mps 768 mmHg 26%
    16:00 +3°C° 0 mm 1 mps 768 mmHg 27%
    17:00 +2°C° 0 mm 1 mps 768 mmHg 30%
    18:00 -1°C° 0 mm 2 mps 768 mmHg 34%
    19:00 -2°C° 0 mm 2 mps 767 mmHg 37%
    20:00 -2°C° 0 mm 2 mps 767 mmHg 37%
    21:00 -2°C° 0 mm 2 mps 767 mmHg 38%
    22:00 -3°C° 0 mm 2 mps 767 mmHg 38%
    23:00 -3°C° 0 mm 2 mps 767 mmHg 37%

    Day after tomorrow, 24 February, Sunday

    Time Temperature Precipitation Wind Pressure Humidity
    00:00 0°C° 0 mm 1 mps 767 mmHg 36%
    01:00 0°C° 0 mm 1 mps 767 mmHg 35%
    02:00 0°C° 0 mm 1 mps 766 mmHg 34%
    03:00 +1°C° 0 mm 1 mps 766 mmHg 33%
    04:00 0°C° 0 mm 0 mps 766 mmHg 31%
    05:00 0°C° 0 mm 0 mps 766 mmHg 31%
    06:00 +1°C° 0 mm 1 mps 766 mmHg 31%
    07:00 +1°C° 0 mm 1 mps 766 mmHg 31%
    08:00 +3°C° 0 mm 1 mps 766 mmHg 29%
    09:00 +4°C° 0 mm 1 mps 766 mmHg 27%
    10:00 +5°C° 0 mm 1 mps 766 mmHg 26%
    11:00 +5°C° 0 mm 2 mps 766 mmHg 26%
    12:00 +6°C° 0 mm 2 mps 766 mmHg 26%
    13:00 +7°C° 0 mm 2 mps 766 mmHg 27%
    14:00 +7°C° 0 mm 2 mps 765 mmHg 32%
    15:00 +7°C° 0 mm 2 mps 765 mmHg 38%
    16:00 +6°C° 0 mm 2 mps 765 mmHg 43%
    17:00 +5°C° 0 mm 2 mps 765 mmHg 46%
    18:00 +4°C° 0 mm 2 mps 765 mmHg 48%
    19:00 +2°C° 0 mm 2 mps 765 mmHg 50%
    20:00 +2°C° 0 mm 2 mps 766 mmHg 52%
    21:00 +2°C° 0 mm 2 mps 766 mmHg 53%
    22:00 +2°C° 0 mm 2 mps 766 mmHg 54%
    23:00 +1°C° 0 mm 2 mps 766 mmHg 55%

    25 February, Monday

    Time Temperature Precipitation Wind Pressure Humidity
    00:00 +1°C° 0 mm 2 mps 766 mmHg 56%
    01:00 +1°C° 0 mm 2 mps 766 mmHg 56%
    02:00 +1°C° 0 mm 2 mps 766 mmHg 57%
    03:00 0°C° 0 mm 3 mps 766 mmHg 58%
    04:00 0°C° 0 mm 3 mps 765 mmHg 59%
    05:00 0°C° 0 mm 3 mps 766 mmHg 61%
    06:00 0°C° 0 mm 3 mps 766 mmHg 62%
    07:00 +1°C° 0 mm 2 mps 766 mmHg 63%
    08:00 +1°C° 0 mm 3 mps 766 mmHg 61%
    09:00 +3°C° 0 mm 3 mps 766 mmHg 58%
    10:00 +4°C° 0 mm 3 mps 766 mmHg 55%
    11:00 +5°C° 0 mm 3 mps 766 mmHg 55%
    12:00 +7°C° 0 mm 3 mps 766 mmHg 54%
    13:00 +9°C° 0 mm 3 mps 765 mmHg 53%
    14:00 +9°C° 0 mm 2 mps 765 mmHg 55%
    15:00 +9°C° 0 mm 2 mps 765 mmHg 57%
    16:00 +9°C° 0 mm 2 mps 765 mmHg 59%
    17:00 +8°C° 0 mm 2 mps 765 mmHg 63%
    18:00 +6°C° 0 mm 2 mps 765 mmHg 66%
    19:00 +5°C° 0 mm 2 mps 765 mmHg 70%
    20:00 +5°C° 0 mm 2 mps 765 mmHg 70%
    21:00 +4°C° 0 mm 2 mps 764 mmHg 70%
    22:00 +4°C° 0 mm 2 mps 764 mmHg 70%
    23:00 +3°C° 0 mm 3 mps 764 mmHg 70%

    26 February, Tuesday

    Time Temperature Precipitation Wind Pressure Humidity
    00:00 +3°C° 0 mm 3 mps 763 mmHg 69%
    01:00 +3°C° 0 mm 3 mps 763 mmHg 69%
    02:00 +3°C° 0 mm 3 mps 763 mmHg 69%
    03:00 +3°C° 0 mm 3 mps 762 mmHg 70%
    04:00 +1°C° 0 mm 4 mps 762 mmHg 71%
    05:00 +3°C° 0 mm 4 mps 761 mmHg 72%
    06:00 +3°C° 0 mm 4 mps 761 mmHg 74%
    07:00 +3°C° 0 mm 4 mps 761 mmHg 75%
    08:00 +3°C° 0 mm 5 mps 761 mmHg 70%
    09:00 +5°C° 0 mm 6 mps 761 mmHg 65%
    10:00 +6°C° 0 mm 7 mps 760 mmHg 60%
    11:00 +8°C° 0 mm 7 mps 760 mmHg 55%
    12:00 +9°C° 0 mm 7 mps 760 mmHg 51%
    13:00 +10°C° 0 mm 7 mps 759 mmHg 46%
    14:00 +10°C° 0 mm 6 mps 759 mmHg 51%
    15:00 +9°C° 0 mm 5 mps 759 mmHg 55%
    16:00 +9°C° 0 mm 5 mps 759 mmHg 59%
    17:00 +8°C° 0 mm 4 mps 759 mmHg 64%
    18:00 +8°C° 0 mm 3 mps 759 mmHg 68%
    19:00 +7°C° 0 mm 3 mps 760 mmHg 72%
    20:00 +7°C° 0 mm 3 mps 760 mmHg 77%
    21:00 +5°C° 0 mm 3 mps 760 mmHg 82%
    22:00 +4°C° 0 mm 3 mps 760 mmHg 87%
    23:00 +3°C° 0 mm 3 mps 760 mmHg 89%

    27 February, Wednesday

    Time Temperature Precipitation Wind Pressure Humidity
    00:00 +4°C° 0 mm 2 mps 760 mmHg 90%
    01:00 +4°C° 0 mm 2 mps 760 mmHg 92%
    02:00 +3°C° 0 mm 2 mps 760 mmHg 93%
    03:00 +3°C° 0 mm 2 mps 759 mmHg 93%
    04:00 +3°C° 0 mm 2 mps 759 mmHg 94%
    05:00 +2°C° 0 mm 2 mps 759 mmHg 94%
    06:00 +2°C° 0 mm 2 mps 759 mmHg 94%
    07:00 +3°C° 0 mm 1 mps 759 mmHg 94%
    08:00 +4°C° 0 mm 1 mps 759 mmHg 88%
    09:00 +6°C° 0 mm 1 mps 759 mmHg 82%
    10:00 +8°C° 0 mm 1 mps 759 mmHg 75%
    11:00 +9°C° 0 mm 1 mps 758 mmHg 67%
    12:00 +10°C° 0 mm 1 mps 758 mmHg 59%
    13:00 +12°C° 0 mm 1 mps 757 mmHg 50%
    14:00 +12°C° 0 mm 1 mps 757 mmHg 51%
    15:00 +12°C° 0 mm 1 mps 756 mmHg 52%
    16:00 +13°C° 0 mm 1 mps 755 mmHg 52%
    17:00 +12°C° 0 mm 1 mps 755 mmHg 59%
    18:00 +10°C° 0 mm 1 mps 755 mmHg 65%
    19:00 +9°C° 0 mm 1 mps 754 mmHg 72%
    20:00 +8°C° 0 mm 2 mps 754 mmHg 76%
    21:00 +7°C° 0 mm 2 mps 754 mmHg 80%
    22:00 +7°C° 0 mm 2 mps 753 mmHg 83%
    23:00 +6°C° 0 mm 2 mps 753 mmHg 83%
    Show more